星链-11468 (STARLINK-11468)

导读

STARLINK-11468是美国太空探索技术公司(SpaceX)星链(Starlink)卫星互联网项目中的一颗低轨通信卫星,于2024年12月5日发射入轨,目前处于在轨运行状态。 该卫星运行在近地轨道,轨道近地点高度约359公里,远地点约360公里,属于Starlink V1.0卫星平台,依托相控阵天线与激光通信技术,助力为全球尤其是偏远地区提供高速低延迟互联网服务,进一步扩大星链的全球覆盖范围。

基本信息
目录编号:
62221
目录名称:
STARLINK-11468
国际标识:
2024-231D
轨道中心:
EARTH
卫星名称:
星链-11468
卫星全名:
星链-11468 (STARLINK-11468)
卫星状态:
在轨 (已飞行639 天)
发射日期:
2024-12-05 UTC
国别 :
美国 (US)
星等 :
--
轨道信息
数据来源 国际轨道数据
星历时间: 2026-09-05T11:34:37+0800
8小时前
查看轨道信息
半长轴: 6737.74km
偏心率: 0.0001074
轨道倾角: 53.158°
近地点辐角 72.708°
升交点赤经 296.888°
平近点角 287.405°
近地点: 358.879km
远地点: 360.327km
周期: 91.734分钟
每日圈数: 15.697535
详细信息
固有亮度:
5
最大亮度:
2.5
卫星平台:
Starlink V1.0
覆盖范围:
全球
运营商:
太空探索技术公司
运营商所在国:
美国
制造商(研发单位):
太空探索技术公司
制造商所在国:
美国
使用方式:
暂无
卫星简介
Starlink 计划是 SpaceX 推出的全球卫星互联网项目,通过发射低轨道卫星,为全球尤其是偏远地区提供高速、低延迟的互联网服务。自 2019 年起,Starlink 已部署数千颗卫星,旨在缩小全球数字鸿沟,推动互联网普及。该项目还为军事、航空等行业提供通信支持,带来广泛经济效益。
2D轨道图
3D轨道图
轨道高度分析图
轨道倾角分析图
轨道综合分析图
查看轨道综合分析图
交会数据列表
事件ID 空间交会对象 最接近时刻(TCA) 交会距离 交会风险概率(CRP) 交会风险指数(CRI) 操作
CDM_260906-054106-174506-222121
2026-09-06T
05:41:29+0000
0.506 km
远距离
1.986774E-4 高风险 0.81